Location: Remedello Sotto
(45.2500°N, 10.3667°E)
Time: 04:34:32
(UTC+00:00)

Lacrosse 5 - Pass Details

Date: 03 February 2023
Orbit: 714 x 724 km, 57.0° (Epoch: 09 March)

Event Time Altitude Azimuth Distance (km) Brightness Sun altitude
Rises 18:26:24 0° 248° (WSW) 3,128 6.4 -21.0°
Reaches altitude 10° 18:28:51 10° 254° (WSW) 2,211 5.5 -21.5°
Maximum altitude 18:33:47 48° 329° (NNW) 951 2.6 -22.3°
Enters shadow 18:35:50 31° 23° (NNE) 1,267 2.9 -22.7°
